[[{"header":{"parameterUnit":"m.s-1","parameterCategory":1,"la1":30.2991,"la2":30.254,"lo1":-89.0895,"lo2":-89.0444,"dy":0.0017,"dx":0.0017,"nx":28,"ny":28,"refTime":"2025-05-31T09:00:00:Z","depth":0,"parameterNumber":2,"parameterNumberName":"U-component_of_WINDS"},"data":[0,0,0,0,0,0,0,0,0,0,0,0,0,0,0,0,0,0,0,0,0,0,0,0,0,0,0,0,0,0,0,0,0,0,0,0,0,0,0,0,0,0,0,0,0,0,0,0,0,0,0,0,0,0,0,0,0,0,0.3666,0.3667,0,0.3697,0.3698,0.3698,0.3753,0.3754,0.3755,0.3756,0.3784,0.3784,0.3783,0,0,0,0,0,0,0,0,0,0,0,0,0,0.3652,0.3652,0.3666,0.3667,0.3667,0.3697,0.3698,0.3698,0.3753,0.3754,0.3755,0.3757,0.3784,0.3784,0.3783,0,0,0,0,0,0,0,0,0,0,0,0,0,0.3668,0.3652,0.3666,0.3698,0.3701,0.3697,0.3698,0.3698,0.3753,0.3754,0.3756,0.3757,0.3784,0.3784,0.3783,0.3749,0,0,0.3782,0.3782,0,0,0,0,0,0,0,0,0.3667,0.3668,0.3693,0.3696,0.37,0.3723,0.3703,0.3715,0.3752,0.3733,0.3756,0.3758,0.3762,0.3764,0.3766,0.375,0.3752,0.3782,0.3782,0.3782,0.3782,0,0,0,0,0,0,0,0.3666,0.3667,0.3678,0.3693,0.3697,0.371,0.3714,0.3705,0.3738,0.3735,0.3739,0.3742,0.3764,0.3766,0.3767,0.3752,0.3782,0.3782,0.3782,0.3781,0.371,0.3709,0,0,0,0,0,0,0.3661,0.3666,0.3677,0.3679,0.3687,0.3709,0.3714,0.3714,0.3738,0.3744,0.3741,0.3744,0.3766,0.3767,0.3768,0.3729,0.3782,0.3781,0.3781,0.3712,0.371,0.3708,0,0,0,0,0,0,0.366,0.3661,0.3676,0.3674,0.3677,0.3708,0.3707,0.3714,0.3716,0.3743,0.3749,0.3737,0.3767,0.3769,0.3754,0.3731,0.3781,0.3781,0.3714,0.3711,0.3709,0.3652,0,0,0,0,0,0,0.3659,0.3661,0.3648,0.3673,0.3677,0.3662,0.3706,0.3713,0.3715,0.372,0.3741,0.3745,0.3769,0.3754,0.3753,0.3731,0.3781,0.3716,0.3713,0.371,0.3656,0.3648,0.3641,0,0,0,0,0,0.3659,0.363,0.3647,0.3648,0.3662,0.3661,0.3662,0.3691,0.3713,0.3701,0.3719,0.3745,0.3734,0.3752,0.3752,0.3729,0.3718,0.3714,0.371,0.3659,0.3649,0.3641,0,0,0,0,0,0,0.36,0.3634,0.3653,0.3632,0.3643,0.367,0.3655,0.3679,0.3683,0.3687,0.3721,0.3726,0.3706,0.3717,0.3736,0.3698,0.373,0.3726,0.3691,0.3682,0.3675,0.3672,0.378,0,0,0,0,0,0.3585,0.3581,0.3611,0.3589,0.3594,0.3623,0.3624,0.3645,0.3657,0.3661,0.3678,0.3688,0.3687,0.3685,0.3686,0.3658,0.3663,0.3643,0.3635,0.3629,0.3624,0.361,0.3601,0.3696,0.3696,0.3696,0,0,0.3552,0.3571,0.3566,0.3578,0.3589,0.3584,0.3627,0.3619,0.3616,0.366,0.3647,0.366,0.3673,0.3652,0.3643,0.366,0.36,0.3624,0.3619,0.3618,0.3605,0.3596,0.3588,0.3694,0.3694,0.3694,0,0,0.3491,0.3505,0.3489,0.3499,0.3516,0.3536,0.3532,0.3556,0.3566,0.3555,0.3588,0.3584,0.3581,0.359,0.3593,0.3537,0.3561,0.3536,0.3496,0.3482,0.3474,0.3468,0.3447,0.3439,0.3532,0.3532,0.3532,0,0.3448,0.3443,0.3477,0.3468,0.3471,0.3514,0.3496,0.3505,0.352,0.3522,0.3541,0.3539,0.3551,0.3532,0.3519,0.3521,0.3517,0.3533,0.3473,0.3467,0.3461,0.3441,0.3433,0.3529,0.3529,0.353,0.353,0,0.339,0.3386,0.337,0.3386,0.3388,0.3375,0.3406,0.3404,0.3425,0.3443,0.3431,0.3447,0.3452,0.3449,0.3469,0.3433,0.3443,0.3467,0.35,0.3448,0.343,0.3423,0.3524,0.3525,0.3526,0.3527,0,0,0.329,0.3326,0.3319,0.3327,0.335,0.3346,0.3336,0.3342,0.3339,0.3349,0.334,0.3338,0.3361,0.3365,0.3387,0.3375,0.3328,0.34,0.3401,0.3385,0.3288,0.3268,0.3259,0.3345,0.3344,0.3343,0.3287,0,0.3232,0.3216,0.3246,0.3222,0.3219,0.326,0.325,0.3262,0.3279,0.3278,0.3296,0.3294,0.3325,0.3328,0.3318,0.3336,0.3309,0.3341,0.3335,0.3335,0.3329,0.325,0.3229,0.3175,0.328,0.3279,0.3278,0,0.3162,0.317,0.3146,0.3171,0.317,0.3161,0.317,0.3168,0.3183,0.3196,0.3202,0.3229,0.3219,0.3252,0.3238,0.3259,0.3259,0.3268,0.3267,0.3266,0.3302,0.3245,0.3158,0.3149,0.3267,0.3268,0.3269,0,0.309,0.3095,0.3081,0.3087,0.3116,0.3108,0.312,0.3136,0.3138,0.3146,0.3147,0.3153,0.3155,0.3158,0.3185,0.3207,0.3168,0.3204,0.3177,0.3176,0.3165,0.3165,0.3075,0.3168,0.3168,0.3168,0.3168,0,0.3021,0.3004,0.3049,0.304,0.3023,0.3059,0.304,0.3056,0.3071,0.3065,0.3101,0.3095,0.3132,0.313,0.3151,0.3136,0.3137,0.3146,0.3151,0.3142,0.314,0.3141,0.3144,0.3166,0.3167,0.3167,0.3167,0,0.2936,0.2966,0.2954,0.2983,0.299,0.2976,0.3,0.2993,0.3014,0.3006,0.3006,0.3037,0.3037,0.3065,0.3069,0.3083,0.3058,0.3072,0.3053,0.3057,0.3029,0.303,0.2934,0.2923,0.3024,0.3023,0.3022,0,0.2889,0.2878,0.2907,0.2906,0.2917,0.2915,0.2918,0.2953,0.2954,0.2971,0.2962,0.2964,0.2968,0.2965,0.2987,0.2991,0.3003,0.2969,0.3004,0.2994,0.3001,0.3,0.2999,0.2961,0.296,0.2959,0.2958,0,0.2803,0.2819,0.2822,0.283,0.2833,0.2841,0.2851,0.2849,0.2887,0.2886,0.2887,0.289,0.2896,0.2897,0.2905,0.2916,0.2943,0.2948,0.2942,0.293,0.292,0.2924,0.3032,0.2949,0.295,0.2951,0.2951,0.2951,0.2735,0.2727,0.2746,0.2748,0.276,0.2769,0.2764,0.2785,0.2786,0.2794,0.2815,0.2812,0.2828,0.2842,0.285,0.2848,0.2864,0.2856,0.2853,0.285,0.2844,0.2922,0.285,0.285,0.285,0.2851,0.2851,0,0.2649,0.2664,0.2666,0.268,0.2682,0.271,0.2723,0.2722,0.2719,0.2733,0.2736,0.2737,0.2739,0.2762,0.2767,0.2761,0.2773,0.276,0.276,0.2762,0.283,0.2834,0.275,0.275,0.275,0.275,0.275,0.275,0.2604,0.2592,0.261,0.2603,0.2618,0.2617,0.2622,0.263,0.2641,0.2641,0.2643,0.2659,0.2676,0.2683,0.2686,0.2693,0.2692,0.2675,0.2686,0.2748,0.2757,0.2767,0.2771,0.2675,0.2675,0.2618,0.2618,0.2617]},{"header":{"parameterUnit":"m.s-1","parameterCategory":1,"la1":30.2991,"la2":30.254,"lo1":-89.0895,"lo2":-89.0444,"dy":0.0017,"dx":0.0017,"nx":28,"ny":28,"refTime":"2025-05-31T09:00:00:Z","depth":0,"parameterNumber":3,"parameterNumberName":"V-component_of_WINDS"},"data":[0,0,0,0,0,0,0,0,0,0,0,0,0,0,0,0,0,0,0,0,0,0,0,0,0,0,0,0,0,0,0,0,0,0,0,0,0,0,0,0,0,0,0,0,0,0,0,0,0,0,0,0,0,0,0,0,0,0,-6.2293,-6.2293,0,-6.2333,-6.2333,-6.2333,-6.2214,-6.2211,-6.2207,-6.2204,-6.2242,-6.2247,-6.2251,0,0,0,0,0,0,0,0,0,0,0,0,0,-6.2112,-6.2116,-6.2293,-6.2293,-6.2294,-6.2332,-6.2333,-6.2334,-6.2215,-6.2211,-6.2206,-6.2202,-6.2241,-6.2246,-6.2251,0,0,0,0,0,0,0,0,0,0,0,0,0,-6.2175,-6.2118,-6.2293,-6.2239,-6.2235,-6.2332,-6.2333,-6.2334,-6.2216,-6.221,-6.2205,-6.22,-6.2239,-6.2246,-6.2252,-6.2402,0,0,-6.2272,-6.2275,0,0,0,0,0,0,0,0,-6.2172,-6.2182,-6.2247,-6.2243,-6.2239,-6.2263,-6.2283,-6.2357,-6.2217,-6.2223,-6.2204,-6.2197,-6.2253,-6.2259,-6.2278,-6.2404,-6.2406,-6.2273,-6.2277,-6.228,-6.2282,0,0,0,0,0,0,0,-6.2168,-6.218,-6.2308,-6.2248,-6.2243,-6.2213,-6.2216,-6.2297,-6.2268,-6.2222,-6.2214,-6.222,-6.225,-6.2272,-6.2278,-6.2406,-6.2273,-6.2279,-6.2283,-6.2285,-6.2657,-6.2662,0,0,0,0,0,0,-6.2171,-6.2177,-6.2307,-6.231,-6.2191,-6.2221,-6.2224,-6.2261,-6.2267,-6.2263,-6.2225,-6.2214,-6.2263,-6.227,-6.2279,-6.2455,-6.228,-6.2286,-6.229,-6.2651,-6.2658,-6.2664,0,0,0,0,0,0,-6.2167,-6.2183,-6.2306,-6.2241,-6.2254,-6.2229,-6.2272,-6.2264,-6.2286,-6.2269,-6.2263,-6.2252,-6.2259,-6.2269,-6.2372,-6.2454,-6.2289,-6.2295,-6.2644,-6.2653,-6.2661,-6.2808,0,0,0,0,0,0,-6.2163,-6.2183,-6.224,-6.2243,-6.2258,-6.24,-6.2277,-6.2269,-6.2298,-6.2285,-6.2293,-6.2289,-6.2256,-6.2363,-6.2379,-6.246,-6.23,-6.2637,-6.2648,-6.2658,-6.2796,-6.2821,-6.2842,0,0,0,0,0,-6.2157,-6.228,-6.2244,-6.226,-6.2329,-6.2405,-6.2413,-6.2372,-6.2305,-6.2362,-6.2351,-6.2289,-6.2443,-6.2375,-6.2392,-6.2476,-6.2631,-6.2645,-6.2658,-6.2785,-6.2816,-6.2842,0,0,0,0,0,0,-6.2286,-6.2279,-6.2239,-6.2367,-6.2388,-6.2384,-6.2455,-6.2406,-6.2445,-6.2431,-6.2378,-6.2381,-6.2494,-6.2495,-6.2419,-6.2622,-6.2525,-6.2543,-6.2617,-6.2646,-6.2668,-6.2665,-6.2306,0,0,0,0,0,-6.2329,-6.2392,-6.2382,-6.2496,-6.2508,-6.248,-6.2511,-6.2478,-6.2497,-6.2505,-6.2501,-6.2522,-6.2574,-6.261,-6.2657,-6.2795,-6.2795,-6.2862,-6.2885,-6.2904,-6.292,-6.2993,-6.3022,-6.2708,-6.2708,-6.2708,0,0,-6.242,-6.2424,-6.2466,-6.2522,-6.2534,-6.2599,-6.2488,-6.2562,-6.2609,-6.2516,-6.2613,-6.2611,-6.263,-6.2751,-6.2804,-6.2756,-6.3007,-6.2921,-6.2937,-6.2942,-6.3009,-6.3039,-6.3065,-6.2717,-6.2715,-6.2714,0,0,-6.2617,-6.2627,-6.2723,-6.2737,-6.2757,-6.2738,-6.2761,-6.2766,-6.2761,-6.2858,-6.2789,-6.2845,-6.2937,-6.2953,-6.2973,-6.3178,-6.3122,-6.3195,-6.3316,-6.3387,-6.3412,-6.3434,-6.3507,-6.3533,-6.321,-6.321,-6.3211,0,-6.2727,-6.2823,-6.2778,-6.2857,-6.2883,-6.2802,-6.2898,-6.2914,-6.2948,-6.2968,-6.2913,-6.3027,-6.3034,-6.3158,-6.3208,-6.3227,-6.3251,-6.3193,-6.3412,-6.3434,-6.3453,-6.3522,-6.3549,-6.3219,-6.3218,-6.3217,-6.3216,0,-6.2956,-6.3024,-6.3099,-6.3135,-6.317,-6.3257,-6.3224,-6.3265,-6.3229,-6.3215,-6.3315,-6.332,-6.3368,-6.3394,-6.336,-6.3514,-6.3483,-6.3422,-6.3323,-6.3493,-6.3556,-6.3582,-6.3232,-6.3228,-6.3226,-6.3224,0,0,-6.3236,-6.3247,-6.3275,-6.329,-6.3306,-6.3358,-6.3441,-6.3488,-6.3523,-6.355,-6.3618,-6.3698,-6.3641,-6.3664,-6.363,-6.3694,-6.3855,-6.3624,-6.3623,-6.3666,-6.4024,-6.4071,-6.4102,-6.3818,-6.3823,-6.3827,-6.4023,0,-6.3431,-6.3574,-6.3536,-6.3679,-6.3741,-6.3665,-6.3737,-6.3755,-6.3745,-6.3795,-6.3782,-6.384,-6.3761,-6.3775,-6.3834,-6.3823,-6.3926,-6.3808,-6.3881,-6.3884,-6.3878,-6.4135,-6.4184,-6.4369,-6.4047,-6.4052,-6.4055,0,-6.3677,-6.3714,-6.3863,-6.3869,-6.3894,-6.396,-6.3999,-6.4049,-6.4067,-6.4055,-6.4082,-6.4035,-6.4116,-6.4019,-6.413,-6.405,-6.4078,-6.4077,-6.4083,-6.4088,-6.3979,-6.4147,-6.4426,-6.4454,-6.4093,-6.409,-6.4088,0,-6.3866,-6.3953,-6.4053,-6.4069,-6.4078,-6.4127,-6.4133,-6.4145,-6.4176,-6.4211,-6.423,-6.4274,-6.4298,-6.4332,-6.4299,-6.4231,-6.4415,-6.4314,-6.4407,-6.4408,-6.4449,-6.4446,-6.4737,-6.4467,-6.4467,-6.4466,-6.4466,0,-6.4086,-6.4181,-6.4138,-6.42,-6.4303,-6.4258,-6.4361,-6.4359,-6.4371,-6.443,-6.4367,-6.4424,-6.4377,-6.4429,-6.4403,-6.4499,-6.451,-6.4502,-6.4494,-6.4508,-6.4509,-6.4525,-6.4511,-6.4474,-6.4472,-6.447,-6.4469,0,-6.4315,-6.429,-6.4395,-6.4396,-6.4398,-6.4474,-6.4475,-6.4531,-6.4517,-6.4593,-6.4608,-6.4585,-6.4643,-6.4614,-6.4674,-6.4657,-6.4781,-6.4755,-6.4775,-6.4768,-6.4862,-6.4854,-6.5172,-6.5212,-6.4917,-6.492,-6.4923,0,-6.4457,-6.4528,-6.4537,-6.4573,-6.4584,-6.4642,-6.4673,-6.4632,-6.4667,-6.4693,-6.4747,-6.4801,-6.4841,-6.4938,-6.4926,-6.4972,-6.4947,-6.5056,-6.4954,-6.4965,-6.4949,-6.4945,-6.4952,-6.5076,-6.508,-6.5083,-6.5085,0,-6.4713,-6.4697,-6.4745,-6.479,-6.4829,-6.4862,-6.4889,-6.4922,-6.4881,-6.4923,-6.4983,-6.5015,-6.5077,-6.5131,-6.5171,-6.5176,-6.5124,-6.5117,-6.5141,-6.5155,-6.5164,-6.516,-6.4831,-6.511,-6.5107,-6.5106,-6.5104,-6.5103,-6.4902,-6.4962,-6.4978,-6.5033,-6.505,-6.5077,-6.513,-6.5123,-6.5172,-6.522,-6.5192,-6.5263,-6.5278,-6.5327,-6.5339,-6.5393,-6.5349,-6.5384,-6.5392,-6.5402,-6.5414,-6.5156,-6.54,-6.5399,-6.5398,-6.5398,-6.5397,0,-6.5154,-6.5161,-6.5213,-6.5253,-6.5297,-6.5245,-6.5273,-6.5313,-6.5375,-6.5395,-6.5437,-6.5505,-6.5557,-6.555,-6.5597,-6.5641,-6.5618,-6.5655,-6.5651,-6.5653,-6.545,-6.5425,-6.5672,-6.5672,-6.5672,-6.5672,-6.5672,-6.5672,-6.5291,-6.5389,-6.5375,-6.5481,-6.5486,-6.5555,-6.5575,-6.5599,-6.5615,-6.5695,-6.5738,-6.5733,-6.5742,-6.5789,-6.5834,-6.583,-6.585,-6.5896,-6.5884,-6.5694,-6.5667,-6.5641,-6.5617,-6.5901,-6.5901,-6.6081,-6.6083,-6.6084]}]]